User: anonymous   Login
Location: Unspecified
(0.0000°N, 0.0000°E)
Time: 23:15:17
(UTC+01:00)
Language:

Ariane H10 - Orbit

View from above orbital plane
View from above orbital plane
View from above satellite
View from above satellite

Ground track
Ground track

The orbit data is extracted from the following two-line orbital elements,

1 19122U 88040B   15027.00042515  .00001498  00000-0  78990-2 0  1020
2 19122 007.1218 164.7390 7154882 164.8270 331.4109 02.32690846176587
Epoch (UTC): 27 January 2015 00:00:36
Eccentricity: 0.7154882
inclination: 7.1218°
perigee height: 466 km
apogee height: 34888 km
right ascension of ascending node: 164.7390°
argument of perigee: 164.8270°
revolutions per day: 2.32690846
mean anomaly at epoch: 331.4109°
orbit number at epoch: 17658

The dashed part of the orbit path shows where the satellite is in the earth's shadow,  

DLR